CW9773 Weather Reports


Display with metric or nautical units.
time (UTC)temp
F
wind
direction
speed
MPH
gust
MPH
rain 1hr
in
rain 24hr
in
rain mn
in
humidity
%
barometer
mb
20260906040036 66 197 0.0 0.0 0.00 0.08 0.00 84 1010.8
20260906034558 66 197 0.0 0.0 0.00 0.08 0.08 84 1011.0
20260906033026 67 197 0.0 0.0 0.00 0.08 0.08 84 1011.3
20260906031616 67 197 0.0 0.0 0.00 0.08 0.08 84 1011.3
20260906030015 68 197 0.0 0.0 0.00 0.08 0.08 84 1011.3
20260906024556 68 197 0.0 0.0 0.00 0.08 0.08 84 1010.9
20260906023024 68 197 0.0 0.0 0.00 0.08 0.08 83 1010.7
20260906021554 69 197 0.0 0.0 0.00 0.08 0.08 83 1010.6
20260906020022 69 197 0.0 0.0 0.00 0.08 0.08 83 1010.6
20260906014548 69 197 0.0 0.0 0.00 0.08 0.08 83 1010.5
20260906013026 69 197 0.0 0.0 0.00 0.08 0.08 83 1010.3
20260906011556 70 197 0.0 0.0 0.00 0.08 0.08 83 1009.8
20260906010018 70 197 0.0 0.0 0.00 0.08 0.08 83 1009.7
20260906004552 71 197 0.0 0.0 0.00 0.08 0.08 82 1009.8
20260906003016 71 197 0.0 0.0 0.00 0.08 0.08 82 1009.6
20260906001545 71 197 0.0 0.0 0.00 0.08 0.08 82 1009.3
20260906000010 72 197 0.0 0.0 0.00 0.08 0.08 82 1009.1
20260905234554 73 197 0.0 0.0 0.00 0.08 0.08 81 1008.9
20260905233035 73 197 0.0 0.0 0.00 0.08 0.08 81 1008.9
20260905231556 74 197 0.0 0.0 0.00 0.08 0.08 81 1008.8
20260905230022 75 197 0.0 0.0 0.00 0.08 0.08 80 1008.7
20260905224549 75 197 0.0 0.0 0.00 0.08 0.08 80 1008.6
20260905223008 76 197 0.0 0.0 0.00 0.08 0.08 79 1008.6
20260905221546 77 197 0.0 0.0 0.00 0.08 0.08 78 1008.7
20260905220006 77 195 0.0 2.0 0.00 0.08 0.08 78 1008.6
20260905214538 77 209 0.0 0.0 0.00 0.08 0.08 78 1008.6
20260905213015 77 209 0.0 0.0 0.00 0.08 0.08 79 1008.6
20260905211533 76 209 0.0 0.0 0.00 0.08 0.08 80 1008.8
20260905210108 75 209 0.0 0.0 0.00 0.08 0.08 80 1008.9
20260905204527 75 209 0.0 0.0 0.00 0.08 0.08 81 1008.9
20260905203059 74 209 0.0 0.0 0.00 0.08 0.08 82 1009.0
20260905201525 73 209 0.0 0.0 0.00 0.08 0.08 84 1009.2
20260905200105 71 209 0.0 0.0 0.00 0.08 0.08 84 1009.2
20260905194521 70 209 0.0 0.0 0.00 0.08 0.08 84 1009.3
20260905193045 69 209 0.0 0.0 0.00 0.08 0.08 84 1009.3
20260905191520 69 209 0.0 0.0 0.00 0.08 0.08 83 1009.5
20260905190046 69 209 0.0 0.0 0.00 0.08 0.08 82 1009.8
20260905184510 69 209 0.0 0.0 0.00 0.08 0.08 82 1010.0
20260905183043 70 209 0.0 0.0 0.05 0.08 0.08 80 1009.9
20260905181506 72 209 0.0 0.0 0.08 0.08 0.08 78 1009.7
20260905180048 75 209 0.0 0.0 0.08 0.08 0.08 75 1010.2
20260905174559 78 209 0.0 0.0 0.08 0.08 0.08 72 1011.0
20260905173033 82 302 0.0 0.0 0.02 0.02 0.02 66 1011.7
20260905171559 86 214 0.0 0.0 0.00 0.00 0.00 67 1011.1
20260905170023 86 214 0.0 0.0 0.00 0.00 0.00 66 1010.8
20260905164550 86 212 0.0 0.0 0.00 0.00 0.00 69 1010.8
20260905163017 85 212 0.0 0.0 0.00 0.00 0.00 70 1010.9
20260905161541 84 212 0.0 0.0 0.00 0.00 0.00 73 1011.0
20260905160001 83 211 0.0 0.0 0.00 0.00 0.00 74 1011.3
20260905154527 82 203 0.0 0.0 0.00 0.00 0.00 76 1011.4
20260905153051 80 203 0.0 0.0 0.00 0.00 0.00 77 1011.3
20260905151510 77 191 0.0 0.0 0.00 0.00 0.00 83 1011.0
20260905150042 74 192 0.0 0.0 0.00 0.00 0.00 87 1011.1
20260905144601 72 192 0.0 0.0 0.00 0.00 0.00 87 1011.3
20260905143025 71 197 0.0 0.0 0.00 0.00 0.00 87 1011.3
20260905141545 70 197 0.0 0.0 0.00 0.00 0.00 87 1011.3
20260905140002 68 197 0.0 0.0 0.00 0.00 0.00 87 1011.5
20260905134532 67 197 0.0 0.0 0.00 0.00 0.00 87 1011.4
20260905133056 66 197 0.0 0.0 0.00 0.00 0.00 87 1011.6
20260905131525 65 197 0.0 0.0 0.00 0.00 0.00 87 1011.8
20260905130052 65 197 0.0 0.0 0.00 0.00 0.00 87 1012.1
20260905124522 64 197 0.0 0.0 0.00 0.00 0.00 86 1012.3
20260905123057 63 197 0.0 0.0 0.00 0.00 0.00 86 1012.2
20260905121526 63 197 0.0 0.0 0.00 0.00 0.00 86 1012.0
20260905114512 63 197 0.0 0.0 0.00 0.00 0.00 86 1011.8
20260905113051 63 197 0.0 0.0 0.00 0.00 0.00 85 1011.6
20260905111653 63 197 0.0 0.0 0.00 0.00 0.00 86 1011.5
20260905110029 63 197 0.0 0.0 0.00 0.00 0.00 85 1011.2
20260905104551 63 197 0.0 0.0 0.00 0.00 0.00 85 1011.0
20260905103028 63 197 0.0 0.0 0.00 0.00 0.00 85 1011.0
20260905101546 63 197 0.0 0.0 0.00 0.00 0.00 85 1010.9
20260905100011 63 197 0.0 0.0 0.00 0.00 0.00 85 1010.9
20260905094544 64 197 0.0 0.0 0.00 0.00 0.00 85 1011.0
20260905093122 64 197 0.0 0.0 0.00 0.00 0.00 85 1010.8
20260905091535 64 197 0.0 0.0 0.00 0.00 0.00 85 1010.8
20260905090059 64 197 0.0 0.0 0.00 0.00 0.00 85 1010.9
20260905084525 65 197 0.0 0.0 0.00 0.00 0.00 85 1011.0
20260905083041 65 197 0.0 0.0 0.00 0.00 0.00 85 1011.3
20260905081505 65 197 0.0 0.0 0.00 0.00 0.00 85 1011.3
20260905080037 65 197 0.0 0.0 0.00 0.00 0.00 85 1011.4
20260905074559 65 197 0.0 0.0 0.00 0.00 0.00 85 1011.7
20260905073035 66 197 0.0 0.0 0.00 0.00 0.00 85 1011.9
20260905071554 66 197 0.0 0.0 0.00 0.00 0.00 84 1011.9
20260905070044 66 197 0.0 0.0 0.00 0.00 0.00 84 1012.0
20260905064609 66 197 0.0 0.0 0.00 0.00 0.00 84 1012.1
20260905063020 67 197 0.0 0.0 0.00 0.00 0.00 84 1012.3
20260905061543 67 197 0.0 0.0 0.00 0.00 0.00 84 1012.6
20260905060021 67 197 0.0 0.0 0.00 0.00 0.00 84 1012.7
20260905054547 68 197 0.0 0.0 0.00 0.00 0.00 84 1012.9
20260905053007 68 197 0.0 0.0 0.00 0.00 0.00 84 1012.9
20260905051542 68 197 0.0 0.0 0.00 0.00 0.00 84 1012.9
20260905050007 68 197 0.0 0.0 0.00 0.00 0.00 84 1012.9
20260905044530 68 197 0.0 0.0 0.00 0.00 0.00 83 1013.0
20260905043058 69 197 0.0 0.0 0.00 0.00 0.00 83 1012.8
20260905041525 69 197 0.0 0.0 0.00 0.00 0.00 83 1012.8